[[{"header":{"parameterUnit":"m.s-1","parameterCategory":1,"la1":30.2991,"la2":30.254,"lo1":-89.0895,"lo2":-89.0444,"dy":0.0017,"dx":0.0017,"nx":28,"ny":28,"refTime":"2025-08-12T21:00:00:Z","depth":0,"parameterNumber":2,"parameterNumberName":"U-component_of_WINDS"},"data":[0,0,0,0,0,0,0,0,0,0,0,0,0,0,0,0,0,0,0,0,0,0,0,0,0,0,0,0,0,0,0,0,0,0,0,0,0,0,0,0,0,0,0,0,0,0,0,0,0,0,0,0,0,0,0,0,0,0,2.1284,2.1285,0,2.1357,2.1358,2.1359,2.1294,2.1291,2.1289,2.1286,2.1362,2.1366,2.137,0,0,0,0,0,0,0,0,0,0,0,0,0,2.1087,2.1091,2.1284,2.1285,2.1286,2.1357,2.1358,2.1359,2.1294,2.1291,2.1288,2.1285,2.136,2.1366,2.1371,0,0,0,0,0,0,0,0,0,0,0,0,0,2.1168,2.1092,2.1284,2.1262,2.1261,2.1357,2.1358,2.136,2.1295,2.1291,2.1287,2.1283,2.1358,2.1365,2.1372,2.1493,0,0,2.1392,2.1395,0,0,0,0,0,0,0,0,2.1163,2.1175,2.1265,2.1264,2.1263,2.1312,2.1316,2.1404,2.1296,2.1282,2.1286,2.1281,2.1349,2.1356,2.1378,2.1497,2.15,2.1393,2.1397,2.14,2.1402,0,0,0,0,0,0,0,2.1158,2.1172,2.1313,2.1266,2.1265,2.1248,2.1255,2.1333,2.1337,2.1283,2.1279,2.1288,2.1347,2.1372,2.138,2.1501,2.1393,2.1399,2.1403,2.1405,2.172,2.1724,0,0,0,0,0,0,2.1155,2.1167,2.1311,2.1315,2.1202,2.1255,2.1263,2.1301,2.1336,2.1337,2.1291,2.1285,2.1363,2.1372,2.1382,2.1525,2.14,2.1406,2.141,2.1716,2.1721,2.1726,0,0,0,0,0,0,2.1151,2.1168,2.1308,2.124,2.1257,2.1263,2.1306,2.1304,2.1329,2.1342,2.1343,2.1316,2.136,2.1373,2.1465,2.1527,2.1409,2.1415,2.1711,2.1717,2.1723,2.1814,0,0,0,0,0,0,2.1145,2.1167,2.1214,2.1242,2.1261,2.1391,2.1309,2.1308,2.1341,2.1333,2.1365,2.1367,2.1358,2.1456,2.1472,2.1534,2.1421,2.1705,2.1714,2.1721,2.1806,2.1823,2.1837,0,0,0,0,0,2.1138,2.1237,2.1217,2.1234,2.1319,2.1395,2.1405,2.1392,2.1346,2.1392,2.14,2.1366,2.1518,2.1466,2.1484,2.1549,2.1701,2.1711,2.1721,2.1798,2.1819,2.1837,0,0,0,0,0,0,2.1217,2.124,2.1218,2.1329,2.136,2.1384,2.1442,2.1415,2.1461,2.1452,2.1434,2.1441,2.1539,2.1553,2.1495,2.1667,2.1602,2.1616,2.1655,2.1675,2.169,2.1685,2.1426,0,0,0,0,0,2.1247,2.1307,2.1324,2.142,2.1436,2.1437,2.1469,2.1456,2.1488,2.1501,2.1516,2.1548,2.1603,2.1639,2.1691,2.1807,2.1812,2.186,2.1876,2.1889,2.1901,2.1962,2.1983,2.1758,2.1758,2.1757,0,0,2.1311,2.133,2.1369,2.1436,2.1459,2.152,2.1449,2.1517,2.1562,2.1512,2.16,2.1612,2.1646,2.1751,2.1798,2.1766,2.1964,2.1901,2.1912,2.1917,2.1974,2.1995,2.2014,2.1764,2.1763,2.1762,0,0,2.1457,2.1478,2.156,2.1584,2.1618,2.1618,2.1637,2.1664,2.167,2.1758,2.1721,2.1774,2.1869,2.1894,2.192,2.2073,2.2042,2.209,2.2174,2.2233,2.2251,2.2266,2.232,2.234,2.2102,2.2102,2.2102,0,2.1531,2.1622,2.1605,2.1676,2.1705,2.1661,2.1743,2.1767,2.1817,2.1838,2.1801,2.1918,2.1938,2.2047,2.2084,2.2107,2.2127,2.2086,2.2249,2.2265,2.2279,2.233,2.2351,2.2107,2.2107,2.2106,2.2106,0,2.1711,2.1775,2.1836,2.1885,2.1921,2.1997,2.1991,2.203,2.2013,2.2015,2.2104,2.2127,2.2181,2.2205,2.219,2.2312,2.2291,2.2252,2.2186,2.2307,2.2354,2.2374,2.2115,2.2113,2.2112,2.211,0,0,2.1911,2.1947,2.197,2.1991,2.2025,2.2073,2.2146,2.2198,2.2231,2.2267,2.2327,2.2407,2.237,2.2399,2.2386,2.2438,2.2556,2.2393,2.2393,2.2422,2.269,2.2719,2.2743,2.2536,2.2539,2.2542,2.2687,0,2.2058,2.2185,2.2171,2.2292,2.2349,2.2307,2.237,2.2397,2.2401,2.245,2.2454,2.251,2.2459,2.2475,2.2525,2.2532,2.261,2.2521,2.2591,2.2594,2.2584,2.2768,2.2799,2.2935,2.2706,2.2709,2.2711,0,2.2248,2.2288,2.2415,2.2438,2.2462,2.2519,2.2564,2.2612,2.2641,2.264,2.2671,2.2648,2.272,2.2652,2.275,2.269,2.2717,2.2725,2.2729,2.2736,2.266,2.2779,2.2978,2.2999,2.2741,2.2738,2.2736,0,2.238,2.2467,2.2553,2.2572,2.2601,2.2642,2.2656,2.2681,2.2713,2.2752,2.2772,2.282,2.2846,2.2883,2.2873,2.2824,2.2973,2.2905,2.2974,2.2974,2.3008,2.3006,2.3214,2.3026,2.3025,2.3025,2.3024,0,2.2546,2.2625,2.2613,2.2666,2.2752,2.2734,2.282,2.2829,2.2851,2.2904,2.287,2.2921,2.2904,2.2954,2.2947,2.3028,2.3041,2.3041,2.3039,2.3045,2.3045,2.3063,2.3053,2.303,2.3029,2.3028,2.3027,0,2.2709,2.2704,2.2795,2.2815,2.2821,2.2884,2.29,2.295,2.295,2.3018,2.3033,2.3033,2.3089,2.3082,2.3146,2.314,2.3242,2.3228,2.3233,2.3229,2.3299,2.3292,2.3527,2.3556,2.3348,2.335,2.3352,0,2.2816,2.2875,2.29,2.2933,2.295,2.3004,2.3035,2.3019,2.3053,2.3089,2.3134,2.3187,2.3229,2.3321,2.3326,2.3374,2.3361,2.3439,2.3368,2.3371,2.3361,2.3358,2.3363,2.3454,2.3456,2.3458,2.346,0,2.3005,2.2999,2.3045,2.3091,2.3129,2.3164,2.3196,2.3224,2.321,2.325,2.3307,2.3339,2.3403,2.3456,2.35,2.3514,2.3485,2.3482,2.35,2.3507,2.3507,2.3508,2.3271,2.3477,2.3475,2.3474,2.3473,2.3472,2.3143,2.3193,2.3218,2.327,2.3292,2.3322,2.3368,2.3373,2.342,2.3471,2.3458,2.3522,2.3547,2.3603,2.3622,2.3671,2.3642,2.3669,2.3676,2.3683,2.3691,2.3499,2.3679,2.3678,2.3678,2.3678,2.3677,0,2.333,2.3343,2.3391,2.3436,2.3477,2.3444,2.3477,2.3513,2.357,2.3596,2.3637,2.3701,2.3751,2.376,2.3808,2.3846,2.3833,2.3859,2.3856,2.3859,2.3714,2.3693,2.3868,2.3868,2.3868,2.3868,2.3868,2.3868,2.3432,2.3515,2.3511,2.3603,2.3616,2.3678,2.3699,2.3726,2.3746,2.382,2.3861,2.3866,2.3884,2.3933,2.3977,2.3978,2.3997,2.4028,2.4024,2.3889,2.387,2.3852,2.3832,2.4032,2.4033,2.4165,2.4166,2.4167]},{"header":{"parameterUnit":"m.s-1","parameterCategory":1,"la1":30.2991,"la2":30.254,"lo1":-89.0895,"lo2":-89.0444,"dy":0.0017,"dx":0.0017,"nx":28,"ny":28,"refTime":"2025-08-12T21:00:00:Z","depth":0,"parameterNumber":3,"parameterNumberName":"V-component_of_WINDS"},"data":[0,0,0,0,0,0,0,0,0,0,0,0,0,0,0,0,0,0,0,0,0,0,0,0,0,0,0,0,0,0,0,0,0,0,0,0,0,0,0,0,0,0,0,0,0,0,0,0,0,0,0,0,0,0,0,0,0,0,4.2182,4.2183,0,4.2225,4.2226,4.2226,4.2161,4.2159,4.2157,4.2155,4.2196,4.2199,4.2202,0,0,0,0,0,0,0,0,0,0,0,0,0,4.204,4.2043,4.2182,4.2183,4.2183,4.2225,4.2226,4.2226,4.2162,4.2159,4.2156,4.2154,4.2195,4.2199,4.2202,0,0,0,0,0,0,0,0,0,0,0,0,0,4.2094,4.2044,4.2182,4.2156,4.2154,4.2225,4.2226,4.2226,4.2162,4.2159,4.2155,4.2152,4.2194,4.2198,4.2203,4.23,0,0,4.2218,4.222,0,0,0,0,0,0,0,0,4.2091,4.2099,4.2159,4.2158,4.2156,4.2184,4.219,4.2251,4.2163,4.2159,4.2154,4.2151,4.2195,4.2199,4.2214,4.2302,4.2304,4.2218,4.2221,4.2223,4.2224,0,0,0,0,0,0,0,4.2087,4.2097,4.2199,4.216,4.2158,4.2141,4.2145,4.2202,4.2195,4.2159,4.2155,4.2161,4.2193,4.221,4.2215,4.2305,4.2218,4.2222,4.2225,4.2227,4.247,4.2474,0,0,0,0,0,0,4.2087,4.2094,4.2198,4.22,4.2115,4.2146,4.2151,4.2179,4.2194,4.2194,4.2164,4.2157,4.2203,4.2209,4.2216,4.2329,4.2223,4.2227,4.223,4.2467,4.2471,4.2475,0,0,0,0,0,0,4.2084,4.2097,4.2196,4.2146,4.2157,4.2152,4.2184,4.2181,4.2198,4.2198,4.2196,4.2182,4.2201,4.2209,4.2279,4.2329,4.223,4.2234,4.2463,4.2468,4.2473,4.2556,0,0,0,0,0,0,4.2081,4.2096,4.2135,4.2148,4.216,4.226,4.2187,4.2185,4.2207,4.22,4.2215,4.2214,4.2199,4.2272,4.2284,4.2334,4.2238,4.2458,4.2465,4.2471,4.2549,4.2564,4.2576,0,0,0,0,0,4.2076,4.2157,4.2137,4.215,4.2208,4.2263,4.227,4.2252,4.2211,4.2249,4.2248,4.2214,4.2322,4.228,4.2293,4.2345,4.2455,4.2463,4.2471,4.2543,4.2561,4.2576,0,0,0,0,0,0,4.215,4.2158,4.2136,4.2224,4.2243,4.2252,4.2299,4.2272,4.2303,4.2294,4.2269,4.2273,4.2348,4.2353,4.2306,4.2438,4.2381,4.2392,4.2432,4.2449,4.2462,4.2459,4.2242,0,0,0,0,0,4.2176,4.2221,4.2226,4.2302,4.2313,4.2304,4.2328,4.2312,4.233,4.2338,4.2342,4.2361,4.2399,4.2424,4.2459,4.2549,4.255,4.2591,4.2605,4.2616,4.2626,4.2671,4.2688,4.2502,4.2502,4.2501,0,0,4.2231,4.2241,4.2271,4.2317,4.233,4.2376,4.2312,4.2363,4.2396,4.2346,4.2411,4.2415,4.2434,4.2513,4.2549,4.252,4.2677,4.2627,4.2636,4.2639,4.2681,4.2698,4.2714,4.2507,4.2506,4.2505,0,0,4.2355,4.2368,4.2432,4.2446,4.2467,4.246,4.2475,4.2488,4.2488,4.2554,4.2516,4.2554,4.2621,4.2635,4.265,4.2776,4.2745,4.2788,4.286,4.2904,4.2918,4.2931,4.2974,4.299,4.2798,4.2798,4.2798,0,4.2421,4.2489,4.2468,4.2521,4.2541,4.2498,4.2561,4.2575,4.2606,4.262,4.2588,4.2669,4.2679,4.276,4.279,4.2805,4.282,4.2786,4.2918,4.2931,4.2943,4.2983,4.2999,4.2803,4.2803,4.2802,4.2802,0,4.2567,4.2614,4.2663,4.2694,4.2719,4.2778,4.2764,4.2792,4.2773,4.2769,4.2835,4.2845,4.288,4.2898,4.2881,4.2976,4.2957,4.2923,4.2865,4.2966,4.3003,4.3018,4.281,4.2809,4.2807,4.2806,0,0,4.2739,4.2756,4.2774,4.2786,4.2804,4.2839,4.2894,4.2929,4.2952,4.2974,4.3018,4.3074,4.3041,4.3059,4.3043,4.3082,4.3177,4.3041,4.3041,4.3064,4.328,4.3304,4.3323,4.3157,4.316,4.3163,4.3277,0,4.286,4.2955,4.2937,4.3029,4.3071,4.3029,4.3076,4.3092,4.3089,4.3123,4.3119,4.3159,4.3114,4.3124,4.3161,4.3158,4.322,4.315,4.3196,4.3198,4.3191,4.3343,4.337,4.3477,4.3292,4.3294,4.3296,0,4.3014,4.3041,4.3138,4.3146,4.3163,4.3206,4.3234,4.3268,4.3284,4.3279,4.3298,4.3273,4.3325,4.3268,4.3338,4.3291,4.3309,4.331,4.3314,4.3316,4.3252,4.3347,4.3512,4.3527,4.3319,4.3317,4.3316,0,4.3127,4.3187,4.3252,4.3264,4.3277,4.3307,4.3314,4.3326,4.3347,4.3371,4.3384,4.3415,4.3431,4.3454,4.3438,4.3398,4.351,4.3452,4.3505,4.3506,4.353,4.3528,4.3698,4.3545,4.3544,4.3544,4.3544,0,4.3263,4.3323,4.3302,4.3342,4.3407,4.3385,4.3449,4.345,4.3461,4.3499,4.3465,4.3501,4.3478,4.3511,4.3499,4.3557,4.3565,4.3561,4.3557,4.3563,4.3564,4.3573,4.3565,4.3548,4.3547,4.3546,4.3546,0,4.3399,4.3388,4.3456,4.3461,4.3464,4.3511,4.3515,4.3551,4.3545,4.3593,4.3603,4.3594,4.3631,4.3617,4.3658,4.3649,4.3723,4.371,4.3718,4.3713,4.3767,4.3761,4.3947,4.3969,4.3804,4.3806,4.3807,0,4.3486,4.3531,4.3541,4.3564,4.3572,4.361,4.363,4.361,4.3632,4.3652,4.3685,4.3719,4.3745,4.3807,4.3803,4.3832,4.3818,4.3881,4.3823,4.3827,4.3816,4.3813,4.3816,4.3893,4.3895,4.3896,4.3897,0,4.364,4.3632,4.3663,4.3692,4.3717,4.3739,4.3758,4.3778,4.3758,4.3785,4.3823,4.3843,4.3883,4.3917,4.3943,4.3948,4.3919,4.3916,4.393,4.3936,4.3938,4.3935,4.3747,4.3912,4.391,4.3909,4.3908,4.3908,4.3753,4.3789,4.3801,4.3836,4.3848,4.3866,4.3899,4.3896,4.3927,4.3958,4.3944,4.3987,4.3998,4.403,4.4039,4.4071,4.4047,4.4067,4.4072,4.4077,4.4082,4.3934,4.4077,4.4076,4.4076,4.4075,4.4075,0,4.3903,4.3908,4.394,4.3967,4.3994,4.3965,4.3983,4.4007,4.4045,4.4059,4.4085,4.4127,4.4159,4.4157,4.4186,4.4212,4.4199,4.422,4.4217,4.4218,4.4104,4.4088,4.423,4.423,4.423,4.423,4.423,4.4229,4.3984,4.4043,4.4036,4.41,4.4104,4.4146,4.4159,4.4174,4.4184,4.4232,4.4259,4.4257,4.4264,4.4292,4.432,4.4318,4.4329,4.4355,4.4348,4.4242,4.4226,4.4212,4.4197,4.4358,4.4358,4.4459,4.446,4.4461]}]]